TimeMST,TemperatureF,Dew PointF,Humidity,Sea Level PressureIn,VisibilityMPH,Wind Direction,Wind SpeedMPH,Gust SpeedMPH,PrecipitationIn,Events,Conditions,WindDirDegrees,DateUTC
12:15 AM,-2.2,-5.8,85,30.33,10.0,NW,15.0,-,N/A,,Clear,310,2012-12-09 07:15:00
12:55 AM,-2.2,-7.6,78,30.34,10.0,NW,15.0,-,N/A,,Clear,310,2012-12-09 07:55:00
1:15 AM,-2.2,-5.8,85,30.34,10.0,NW,15.0,-,N/A,,Clear,310,2012-12-09 08:15:00
1:35 AM,-2.2,-7.6,78,30.35,10.0,NW,15.0,-,N/A,,Clear,310,2012-12-09 08:35:00
1:55 AM,-2.2,-7.6,78,30.36,10.0,NW,12.7,-,N/A,,Clear,310,2012-12-09 08:55:00
2:15 AM,-2.2,-7.6,78,30.36,10.0,NW,15.0,-,N/A,,Clear,310,2012-12-09 09:15:00
2:35 AM,-2.2,-5.8,85,30.37,10.0,NW,11.5,-,N/A,,Clear,310,2012-12-09 09:35:00
2:55 AM,-4.0,-11.2,71,30.38,10.0,East,3.5,-,N/A,,Clear,90,2012-12-09 09:55:00
3:35 AM,-2.2,-13.0,60,30.39,10.0,Calm,Calm,-,N/A,,Clear,0,2012-12-09 10:35:00
3:55 AM,-7.6,-11.2,84,30.39,10.0,Calm,Calm,-,N/A,,Clear,0,2012-12-09 10:55:00
4:15 AM,-7.6,-14.8,71,30.40,10.0,Calm,Calm,-,N/A,,Clear,0,2012-12-09 11:15:00
4:35 AM,-9.4,-11.2,92,30.40,10.0,Calm,Calm,-,N/A,,Clear,0,2012-12-09 11:35:00
4:55 AM,-9.4,-20.2,59,30.40,10.0,SSW,5.8,-,N/A,,Clear,210,2012-12-09 11:55:00
5:15 AM,-11.2,-11.2,100,30.40,10.0,SSW,4.6,-,N/A,,Clear,210,2012-12-09 12:15:00
5:35 AM,-13.0,-23.8,59,30.40,10.0,SSW,5.8,-,N/A,,Partly Cloudy,200,2012-12-09 12:35:00
5:55 AM,-11.2,-11.2,100,30.41,10.0,SSW,3.5,-,N/A,,Mostly Cloudy,210,2012-12-09 12:55:00
6:15 AM,-11.2,-23.8,54,30.42,10.0,Calm,Calm,-,N/A,,Partly Cloudy,0,2012-12-09 13:15:00
6:35 AM,-13.0,-18.4,77,30.42,10.0,Calm,Calm,-,N/A,,Clear,0,2012-12-09 13:35:00
6:55 AM,-14.8,-14.8,100,30.42,10.0,South,4.6,-,N/A,,Clear,190,2012-12-09 13:55:00
7:15 AM,-14.8,-16.6,92,30.42,10.0,SW,3.5,-,N/A,,Clear,220,2012-12-09 14:15:00
7:35 AM,-14.8,-20.2,77,30.43,10.0,Calm,Calm,-,N/A,,Clear,0,2012-12-09 14:35:00
7:55 AM,-16.6,-18.4,92,30.43,10.0,SSW,3.5,-,N/A,,Clear,200,2012-12-09 14:55:00
8:15 AM,-13.0,-9999,N/A,30.44,10.0,SSW,6.9,-,N/A,,Clear,200,2012-12-09 15:15:00
8:35 AM,-9999,-9999,N/A,30.44,10.0,South,6.9,-,N/A,,Clear,190,2012-12-09 15:35:00
8:55 AM,-11.2,-11.2,100,30.44,10.0,South,6.9,-,N/A,,Mostly Cloudy,190,2012-12-09 15:55:00
9:35 AM,-7.6,-7.6,100,30.44,10.0,SSW,4.6,-,N/A,,Mostly Cloudy,210,2012-12-09 16:35:00
10:15 AM,-5.8,-5.8,100,30.43,10.0,South,8.1,-,N/A,,Clear,190,2012-12-09 17:15:00
10:35 AM,-4.0,-14.8,60,30.42,10.0,South,9.2,-,N/A,,Clear,190,2012-12-09 17:35:00
10:55 AM,-4.0,-4.0,100,30.41,10.0,SSW,6.9,-,N/A,,Clear,200,2012-12-09 17:55:00
11:15 AM,-2.2,-9.4,71,30.39,10.0,SSW,8.1,-,N/A,,Clear,200,2012-12-09 18:15:00
11:35 AM,-0.4,-4.0,85,30.37,10.0,SSW,9.2,-,N/A,,Clear,200,2012-12-09 18:35:00
12:35 PM,3.2,-0.4,85,30.34,10.0,South,9.2,-,N/A,,Clear,190,2012-12-09 19:35:00
12:55 PM,5.0,-0.4,78,30.32,10.0,SSW,11.5,-,N/A,,Clear,200,2012-12-09 19:55:00
1:15 PM,5.0,-0.4,78,30.30,10.0,South,8.1,-,N/A,,Clear,190,2012-12-09 20:15:00
1:35 PM,6.8,-0.4,72,30.29,10.0,South,9.2,-,N/A,,Clear,190,2012-12-09 20:35:00
1:55 PM,6.8,-0.4,72,30.27,10.0,SSW,10.4,-,N/A,,Clear,200,2012-12-09 20:55:00
2:15 PM,6.8,1.4,79,30.27,10.0,SSW,9.2,-,N/A,,Clear,200,2012-12-09 21:15:00
2:35 PM,6.8,-0.4,72,30.26,10.0,SSW,8.1,-,N/A,,Clear,200,2012-12-09 21:35:00
3:15 PM,6.8,1.4,79,30.23,10.0,SSW,9.2,-,N/A,,Clear,210,2012-12-09 22:15:00
3:35 PM,5.0,-0.4,78,30.22,10.0,SSW,6.9,-,N/A,,Clear,200,2012-12-09 22:35:00
3:55 PM,3.2,-4.0,72,30.21,10.0,SSW,5.8,-,N/A,,Clear,200,2012-12-09 22:55:00
4:15 PM,1.4,-2.2,85,30.20,10.0,SW,4.6,-,N/A,,Clear,220,2012-12-09 23:15:00
4:35 PM,1.4,-0.4,92,30.19,10.0,SSW,4.6,-,N/A,,Clear,210,2012-12-09 23:35:00
4:55 PM,-2.2,-9.4,71,30.17,10.0,SSW,4.6,-,N/A,,Clear,200,2012-12-09 23:55:00
5:15 PM,1.4,1.4,100,30.16,10.0,SSW,4.6,-,N/A,,Clear,200,2012-12-10 00:15:00
6:15 PM,-0.4,-9.4,66,30.11,10.0,Calm,Calm,-,N/A,,Clear,0,2012-12-10 01:15:00
6:35 PM,-0.4,-2.2,92,30.10,10.0,Calm,Calm,-,N/A,,Clear,0,2012-12-10 01:35:00
6:55 PM,1.4,-0.4,92,30.09,10.0,Calm,Calm,-,N/A,,Clear,0,2012-12-10 01:55:00
7:15 PM,-0.4,-5.8,78,30.07,10.0,SSW,4.6,-,N/A,,Clear,210,2012-12-10 02:15:00
7:35 PM,1.4,-0.4,92,30.05,10.0,Calm,Calm,-,N/A,,Clear,0,2012-12-10 02:35:00
7:55 PM,1.4,-2.2,85,30.04,10.0,Calm,Calm,-,N/A,,Clear,0,2012-12-10 02:55:00
8:15 PM,-0.4,-9.4,66,30.03,10.0,SW,6.9,-,N/A,,Clear,220,2012-12-10 03:15:00
8:35 PM,1.4,1.4,100,30.01,10.0,SSW,10.4,-,N/A,,Clear,210,2012-12-10 03:35:00
8:55 PM,-0.4,-14.8,51,30.01,10.0,SSW,9.2,-,N/A,,Clear,210,2012-12-10 03:55:00
9:15 PM,-2.2,-4.0,92,29.99,10.0,SSW,6.9,-,N/A,,Clear,200,2012-12-10 04:15:00
9:35 PM,-4.0,-11.2,71,29.97,10.0,SSE,5.8,-,N/A,,Clear,160,2012-12-10 04:35:00
9:55 PM,-2.2,-5.8,85,29.95,10.0,South,8.1,-,N/A,,Clear,190,2012-12-10 04:55:00
10:15 PM,3.2,-9999,N/A,29.93,10.0,SSW,12.7,-,N/A,,Clear,200,2012-12-10 05:15:00
10:35 PM,3.2,-9.4,56,29.92,10.0,SSW,12.7,-,N/A,,Clear,200,2012-12-10 05:35:00
10:55 PM,3.2,-2.2,78,29.91,10.0,SSW,12.7,-,N/A,,Partly Cloudy,210,2012-12-10 05:55:00
11:15 PM,5.0,5.0,100,29.89,10.0,SSW,10.4,-,N/A,,Partly Cloudy,200,2012-12-10 06:15:00
11:35 PM,6.8,3.2,85,29.87,10.0,SSW,11.5,-,N/A,,Scattered Clouds,200,2012-12-10 06:35:00
11:55 PM,6.8,-0.4,72,29.86,10.0,South,11.5,-,N/A,,Partly Cloudy,190,2012-12-10 06:55:00